• In Hungary
  • List of Countries
  • For 7 days
  • Water Temperature
  • Satellite Maps
  • Weather Map
  • News
  • Weather Widgets
  • user-avatar
    Login

    Hourly Weather Amar

    Today, 23 May, Wednesday

    Time Temperature Precipitation Wind Pressure Humidity
    00:00 +34°C° 0 mm 2 mps 753 mmHg 27%
    01:00 +34°C° 0 mm 2 mps 753 mmHg 28%
    02:00 +32°C° 0 mm 2 mps 753 mmHg 29%
    03:00 +32°C° 0 mm 2 mps 753 mmHg 30%
    04:00 +32°C° 0 mm 2 mps 753 mmHg 31%
    05:00 +32°C° 0 mm 2 mps 753 mmHg 31%
    06:00 +32°C° 0 mm 1 mps 754 mmHg 32%
    07:00 +33°C° 0 mm 1 mps 754 mmHg 30%
    08:00 +34°C° 0 mm 1 mps 754 mmHg 28%
    09:00 +33°C° 0 mm 0 mps 755 mmHg 26%
    10:00 +36°C° 0 mm 1 mps 754 mmHg 24%
    11:00 +37°C° 0 mm 1 mps 754 mmHg 22%
    12:00 +40°C° 0 mm 2 mps 754 mmHg 20%
    13:00 +40°C° 0 mm 2 mps 754 mmHg 18%
    14:00 +40°C° 0 mm 3 mps 753 mmHg 17%
    15:00 +42°C° 0 mm 3 mps 753 mmHg 16%
    16:00 +40°C° 0 mm 3 mps 753 mmHg 18%
    17:00 +39°C° 0 mm 3 mps 752 mmHg 20%
    18:00 +38°C° 0 mm 3 mps 752 mmHg 21%
    19:00 +37°C° 0 mm 3 mps 752 mmHg 23%
    20:00 +36°C° 0 mm 2 mps 752 mmHg 25%
    21:00 +35°C° 0 mm 2 mps 752 mmHg 26%
    22:00 +35°C° 0 mm 2 mps 752 mmHg 26%
    23:00 +34°C° 0 mm 2 mps 752 mmHg 26%

    Tomorrow, 24 May, Thursday

    Time Temperature Precipitation Wind Pressure Humidity
    00:00 +33°C° 0 mm 1 mps 752 mmHg 26%
    01:00 +32°C° 0 mm 1 mps 752 mmHg 27%
    02:00 +32°C° 0 mm 1 mps 752 mmHg 28%
    03:00 +31°C° 0 mm 1 mps 751 mmHg 29%
    04:00 +32°C° 0 mm 2 mps 752 mmHg 28%
    05:00 +32°C° 0 mm 2 mps 752 mmHg 27%
    06:00 +33°C° 0 mm 3 mps 752 mmHg 25%
    07:00 +35°C° 0 mm 3 mps 752 mmHg 23%
    08:00 +36°C° 0 mm 3 mps 752 mmHg 20%
    09:00 +38°C° 0 mm 2 mps 753 mmHg 17%
    10:00 +39°C° 0 mm 2 mps 752 mmHg 17%
    11:00 +39°C° 0 mm 2 mps 752 mmHg 16%
    12:00 +40°C° 0 mm 2 mps 752 mmHg 15%
    13:00 +40°C° 0 mm 2 mps 751 mmHg 15%
    14:00 +42°C° 0 mm 3 mps 751 mmHg 14%
    15:00 +42°C° 0 mm 3 mps 750 mmHg 14%
    16:00 +40°C° 0 mm 3 mps 750 mmHg 14%
    17:00 +40°C° 0 mm 3 mps 750 mmHg 15%
    18:00 +39°C° 0 mm 3 mps 750 mmHg 15%
    19:00 +38°C° 0 mm 3 mps 750 mmHg 17%
    20:00 +38°C° 0 mm 3 mps 750 mmHg 18%
    21:00 +37°C° 0 mm 3 mps 751 mmHg 19%
    22:00 +37°C° 0 mm 3 mps 750 mmHg 21%
    23:00 +36°C° 0 mm 3 mps 750 mmHg 22%

    Day after tomorrow, 25 May, Friday

    Time Temperature Precipitation Wind Pressure Humidity
    00:00 +36°C° 0 mm 3 mps 750 mmHg 23%
    01:00 +35°C° 0 mm 3 mps 749 mmHg 24%
    02:00 +35°C° 0 mm 3 mps 749 mmHg 26%
    03:00 +34°C° 0 mm 3 mps 749 mmHg 28%
    04:00 +34°C° 0 mm 3 mps 749 mmHg 28%
    05:00 +34°C° 0 mm 3 mps 750 mmHg 29%
    06:00 +34°C° 0 mm 3 mps 750 mmHg 30%
    07:00 +35°C° 0 mm 3 mps 750 mmHg 28%
    08:00 +36°C° 0 mm 4 mps 751 mmHg 27%
    09:00 +38°C° 0 mm 4 mps 751 mmHg 25%
    10:00 +40°C° 0 mm 4 mps 751 mmHg 22%
    11:00 +41°C° 0 mm 4 mps 750 mmHg 20%
    12:00 +42°C° 0 mm 4 mps 750 mmHg 17%
    13:00 +42°C° 0 mm 3 mps 749 mmHg 16%
    14:00 +43°C° 0 mm 3 mps 749 mmHg 15%
    15:00 +43°C° 0 mm 3 mps 748 mmHg 15%
    16:00 +42°C° 0 mm 5 mps 748 mmHg 17%
    17:00 +41°C° 0 mm 6 mps 748 mmHg 20%
    18:00 +40°C° 0 mm 8 mps 748 mmHg 23%
    19:00 +39°C° 0 mm 8 mps 749 mmHg 26%
    20:00 +38°C° 0 mm 7 mps 749 mmHg 29%
    21:00 +36°C° 0 mm 7 mps 749 mmHg 32%
    22:00 +36°C° 0 mm 6 mps 749 mmHg 32%
    23:00 +35°C° 0 mm 5 mps 749 mmHg 32%

    26 May, Saturday

    Time Temperature Precipitation Wind Pressure Humidity
    00:00 +35°C° 0 mm 4 mps 749 mmHg 33%
    01:00 +34°C° 0 mm 3 mps 749 mmHg 32%
    02:00 +34°C° 0 mm 2 mps 749 mmHg 32%
    03:00 +32°C° 0 mm 1 mps 749 mmHg 32%
    04:00 +34°C° 0 mm 2 mps 749 mmHg 33%
    05:00 +34°C° 0 mm 3 mps 750 mmHg 33%
    06:00 +34°C° 0 mm 4 mps 750 mmHg 34%
    07:00 +35°C° 0 mm 4 mps 751 mmHg 33%
    08:00 +36°C° 0 mm 5 mps 751 mmHg 32%
    09:00 +37°C° 0 mm 5 mps 751 mmHg 31%
    10:00 +38°C° 0 mm 4 mps 751 mmHg 29%
    11:00 +40°C° 0 mm 4 mps 751 mmHg 27%
    12:00 +40°C° 0 mm 3 mps 751 mmHg 25%
    13:00 +40°C° 0 mm 3 mps 750 mmHg 24%
    14:00 +42°C° 0 mm 3 mps 750 mmHg 23%
    15:00 +42°C° 0 mm 3 mps 750 mmHg 22%
    16:00 +41°C° 0 mm 4 mps 750 mmHg 26%
    17:00 +40°C° 0 mm 5 mps 750 mmHg 29%
    18:00 +39°C° 0 mm 5 mps 750 mmHg 33%
    19:00 +38°C° 0 mm 6 mps 751 mmHg 37%
    20:00 +36°C° 0 mm 6 mps 751 mmHg 40%
    21:00 +36°C° 0 mm 7 mps 752 mmHg 43%
    22:00 +35°C° 0 mm 7 mps 752 mmHg 43%
    23:00 +35°C° 0 mm 7 mps 752 mmHg 43%

    27 May, Sunday

    Time Temperature Precipitation Wind Pressure Humidity
    00:00 +34°C° 0 mm 7 mps 751 mmHg 43%
    01:00 +34°C° 0 mm 6 mps 751 mmHg 46%
    02:00 +33°C° 0 mm 5 mps 751 mmHg 49%
    03:00 +33°C° 0 mm 5 mps 751 mmHg 52%
    04:00 +32°C° 0 mm 4 mps 752 mmHg 54%
    05:00 +32°C° 0 mm 4 mps 752 mmHg 56%
    06:00 +31°C° 0 mm 3 mps 753 mmHg 57%
    07:00 +33°C° 0 mm 3 mps 753 mmHg 52%
    08:00 +34°C° 0 mm 3 mps 754 mmHg 47%
    09:00 +36°C° 0 mm 3 mps 754 mmHg 42%
    10:00 +37°C° 0 mm 4 mps 753 mmHg 38%
    11:00 +38°C° 0 mm 4 mps 753 mmHg 35%
    12:00 +40°C° 0 mm 4 mps 753 mmHg 31%
    13:00 +40°C° 0 mm 5 mps 752 mmHg 32%
    14:00 +40°C° 0 mm 5 mps 752 mmHg 33%
    15:00 +40°C° 0 mm 6 mps 751 mmHg 34%
    16:00 +39°C° 0 mm 5 mps 752 mmHg 37%
    17:00 +37°C° 0 mm 5 mps 752 mmHg 40%
    18:00 +36°C° 0 mm 5 mps 752 mmHg 43%
    19:00 +35°C° 0 mm 4 mps 752 mmHg 44%
    20:00 +35°C° 0 mm 4 mps 752 mmHg 45%
    21:00 +35°C° 0 mm 3 mps 753 mmHg 46%
    22:00 +34°C° 0 mm 3 mps 752 mmHg 47%
    23:00 +34°C° 0 mm 3 mps 752 mmHg 47%

    28 May, Monday

    Time Temperature Precipitation Wind Pressure Humidity
    00:00 +34°C° 0 mm 2 mps 752 mmHg 48%
    01:00 +34°C° 0 mm 3 mps 751 mmHg 48%
    02:00 +34°C° 0 mm 3 mps 751 mmHg 47%
    03:00 +33°C° 0 mm 3 mps 751 mmHg 47%
    04:00 +33°C° 0 mm 3 mps 751 mmHg 47%
    05:00 +34°C° 0 mm 3 mps 752 mmHg 47%
    06:00 +34°C° 0 mm 2 mps 752 mmHg 47%
    07:00 +34°C° 0 mm 3 mps 752 mmHg 44%
    08:00 +35°C° 0 mm 3 mps 752 mmHg 41%
    09:00 +36°C° 0 mm 3 mps 753 mmHg 38%
    10:00 +37°C° 0 mm 3 mps 752 mmHg 36%
    11:00 +38°C° 0 mm 3 mps 752 mmHg 34%
    12:00 +39°C° 0 mm 3 mps 752 mmHg 32%
    13:00 +40°C° 0 mm 4 mps 752 mmHg 34%
    14:00 +40°C° 0 mm 5 mps 751 mmHg 35%
    15:00 +40°C° 0 mm 5 mps 751 mmHg 37%
    16:00 +39°C° 0 mm 5 mps 751 mmHg 40%
    17:00 +37°C° 0 mm 5 mps 751 mmHg 44%
    18:00 +36°C° 0 mm 5 mps 751 mmHg 48%
    19:00 +36°C° 0 mm 5 mps 751 mmHg 50%
    20:00 +35°C° 0 mm 4 mps 751 mmHg 51%
    21:00 +35°C° 0 mm 4 mps 751 mmHg 53%
    22:00 +35°C° 0 mm 3 mps 751 mmHg 53%
    23:00 +35°C° 0 mm 3 mps 751 mmHg 53%
    Show more